EW5205 Weather Reports


Display with metric or nautical units.
time (UTC)temp
F
wind
direction
speed
MPH
gust
MPH
rain 1hr
in
rain 24hr
in
rain mn
in
humidity
%
barometer
mb
20260906133120 69 121 0.0 0.0 0.00 0.00 0.00 63 1022.4
20260906131611 67 126 0.0 0.0 0.00 0.00 0.00 65 1022.3
20260906130100 66 34 0.0 0.0 0.00 0.00 0.00 66 1022.2
20260906124550 66 34 0.0 0.0 0.00 0.00 0.00 66 1022.1
20260906123050 66 29 0.0 0.0 0.00 0.00 0.00 65 1022.1
20260906121547 67 13 0.0 0.0 0.00 0.00 0.00 66 1022.0
20260906120039 68 318 0.0 0.0 0.00 0.00 0.00 62 1021.8
20260906114537 69 136 0.0 0.0 0.00 0.00 0.00 60 1021.7
20260906113038 69 109 0.0 0.0 0.00 0.00 0.00 61 1021.6
20260906111535 69 133 0.0 0.0 0.00 0.00 0.00 61 1021.6
20260906110031 70 121 0.0 0.0 0.00 0.00 0.00 60 1021.6
20260906104530 70 95 0.0 1.0 0.00 0.00 0.00 60 1021.4
20260906103029 70 106 0.0 0.0 0.00 0.00 0.00 59 1021.3
20260906101531 70 101 0.0 1.0 0.00 0.00 0.00 58 1021.2
20260906100028 71 103 0.0 1.0 0.00 0.00 0.00 56 1021.1
20260906094528 72 93 1.0 4.0 0.00 0.00 0.00 55 1021.1
20260906093036 73 86 1.0 4.0 0.00 0.00 0.00 54 1021.1
20260906091528 71 107 0.0 0.0 0.00 0.00 0.00 55 1021.1
20260906090026 71 106 0.0 1.0 0.00 0.00 0.00 56 1020.9
20260906084525 70 94 0.0 0.0 0.00 0.00 0.00 57 1021.0
20260906083025 71 121 0.0 1.0 0.00 0.00 0.00 55 1021.1
20260906081527 71 107 0.0 0.0 0.00 0.00 0.00 55 1021.2
20260906080023 72 124 0.0 0.0 0.00 0.00 0.00 54 1021.1
20260906074522 72 96 0.0 1.0 0.00 0.00 0.00 53 1021.1
20260906073021 72 88 0.0 5.0 0.00 0.00 0.00 53 1021.3
20260906071521 72 90 0.0 0.0 0.00 0.00 0.00 53 1021.4
20260906070018 71 105 0.0 0.0 0.00 0.00 0.00 54 1021.4
20260906064522 70 90 0.0 1.0 0.00 0.00 0.00 57 1021.6
20260906063014 71 98 0.0 0.0 0.00 0.00 0.00 56 1021.5
20260906061510 73 108 0.0 4.0 0.00 0.00 0.00 53 1021.5
20260906060006 73 101 0.0 4.0 0.00 0.00 0.00 51 1021.5
20260906054505 70 87 0.0 0.0 0.00 0.00 0.00 60 1021.4
20260906053015 69 98 0.0 0.0 0.00 0.00 0.00 62 1021.3
20260906051505 69 38 0.0 0.0 0.00 0.00 0.00 60 1021.3
20260906050004 70 96 0.0 0.0 0.00 0.00 0.00 59 1021.3
20260906044504 69 76 0.0 0.0 0.00 0.00 0.00 60 1021.3
20260906043004 69 70 0.0 0.0 0.00 0.00 0.00 60 1021.1
20260906041510 69 79 0.0 0.0 0.00 0.00 0.00 60 1021.2
20260906040002 69 103 0.0 0.0 0.00 0.00 0.00 59 1021.2
20260906034501 70 90 0.0 0.0 0.00 0.00 0.00 58 1021.2
20260906033002 70 92 0.0 0.0 0.00 0.00 0.00 61 1021.1
20260906031501 70 125 0.0 0.0 0.00 0.00 0.00 61 1020.7
20260906030059 71 121 0.0 0.0 0.00 0.00 0.00 62 1020.7
20260906024559 72 98 0.0 0.0 0.00 0.00 0.00 61 1020.6
20260906023059 73 112 0.0 0.0 0.00 0.00 0.00 57 1020.5
20260906021600 73 81 0.0 0.0 0.00 0.00 0.00 59 1020.4
20260906020057 74 62 0.0 0.0 0.00 0.00 0.00 58 1020.4
20260906014605 75 30 0.0 0.0 0.00 0.00 0.00 56 1020.2
20260906013057 76 30 0.0 0.0 0.00 0.00 0.00 55 1020.4
20260906011610 77 29 0.0 0.0 0.00 0.00 0.00 55 1020.2
20260906010056 78 33 0.0 0.0 0.00 0.00 0.00 52 1020.3
20260906004555 78 17 0.0 1.0 0.00 0.00 0.00 54 1020.3
20260906003055 78 138 0.0 5.0 0.00 0.00 0.00 57 1020.2
20260906001600 76 117 0.0 4.0 0.00 0.00 0.00 61 1020.2
20260906000053 74 124 1.0 8.0 0.00 0.00 0.00 64 1020.1
20260905234553 75 126 0.0 7.0 0.00 0.00 0.00 63 1020.4
20260905233108 73 189 0.0 1.0 0.00 0.00 0.00 63 1020.6
20260905231556 73 160 0.0 2.0 0.00 0.00 0.00 64 1020.7
20260905230051 75 183 6.0 11.0 0.00 0.00 0.00 62 1020.9
20260905224607 77 231 1.0 6.0 0.00 0.00 0.00 61 1021.0
20260905223054 79 9 0.0 10.0 0.00 0.00 0.00 47 1020.7
20260905221550 78 46 3.0 12.0 0.00 0.00 0.00 47 1020.6
20260905220051 80 3 6.0 15.0 0.00 0.00 0.00 44 1020.8
20260905214548 83 46 2.0 14.0 0.00 0.00 0.00 38 1020.3
20260905213050 87 121 4.0 12.0 0.00 0.00 0.00 33 1020.0
20260905211547 90 164 6.0 15.0 0.00 0.00 0.00 30 1019.9
20260905210045 90 174 10.0 18.0 0.00 0.00 0.00 30 1020.0
20260905204544 89 122 6.0 18.0 0.00 0.00 0.00 34 1020.2
20260905203042 91 184 6.0 13.0 0.00 0.00 0.00 29 1020.5
20260905201539 92 138 1.0 9.0 0.00 0.00 0.00 28 1020.6
20260905201514 92 207 1.0 12.0 0.00 0.00 0.00 29 1020.6
20260905200035 89 221 0.0 8.0 0.00 0.00 0.00 31 1020.7
20260905194533 89 259 0.0 11.0 0.00 0.00 0.00 31 1020.7
20260905193030 88 180 2.0 7.0 0.00 0.00 0.00 32 1021.0
20260905191527 89 194 0.0 11.0 0.00 0.00 0.00 32 1021.3
20260905190028 88 346 0.0 9.0 0.00 0.00 0.00 33 1021.6
20260905184524 88 246 0.0 9.0 0.00 0.00 0.00 34 1021.9
20260905183023 88 242 0.0 10.0 0.00 0.00 0.00 34 1022.0
20260905181519 87 200 0.0 7.0 0.00 0.00 0.00 35 1022.1
20260905180016 86 249 1.0 9.0 0.00 0.00 0.00 36 1022.3
20260905174518 86 275 1.0 9.0 0.00 0.00 0.00 36 1022.5
20260905173023 85 247 0.0 8.0 0.00 0.00 0.00 38 1022.8
20260905171510 84 222 0.0 8.0 0.00 0.00 0.00 38 1022.9
20260905170006 86 34 0.0 0.0 0.00 0.00 0.00 37 1023.0
20260905164502 84 152 1.0 5.0 0.00 0.00 0.00 38 1023.0
20260905163102 83 261 0.0 0.0 0.00 0.00 0.00 40 1022.9
20260905161555 83 238 0.0 0.0 0.00 0.00 0.00 41 1022.9
20260905160049 81 233 0.0 0.0 0.00 0.00 0.00 43 1023.0
20260905154545 80 247 0.0 0.0 0.00 0.00 0.00 44 1023.0
20260905153041 78 292 0.0 0.0 0.00 0.00 0.00 46 1023.1
20260905151536 77 351 0.0 3.0 0.00 0.00 0.00 49 1023.1
20260905150031 75 328 0.0 1.0 0.00 0.00 0.00 52 1023.1
20260905144527 74 358 0.0 1.0 0.00 0.00 0.00 53 1023.1
20260905143028 72 337 0.0 1.0 0.00 0.00 0.00 55 1023.0
20260905141518 70 351 0.0 1.0 0.00 0.00 0.00 59 1023.0
20260905140016 69 343 0.0 0.0 0.00 0.00 0.00 64 1022.9
20260905134513 67 39 0.0 0.0 0.00 0.00 0.00 61 1022.8